OBJECT AS, 61775

Orbit data source: Space-Track

You're viewing an uncataloged RSO

Recently launched and/or uncataloged RSOs may have evolving metadata. Metadata may include the following, but is not limited to: Owner, Manufacturer, Bus, Motor, and Mission.

OBJECT AS, 61775 is a satellite in SSO that was launched on Mon, 04 Nov 2024 UTC via a SOYUZ-2-1B launch vehicle from the Vostochny Cosmodrome (VOSTO). Unknown objects in Earth's orbit typically refer to objects detected orbiting the Earth but have not yet been identified or cataloged. These objects could be anything from previously untracked satellites, spent rocket stages, debris from satellite collisions, or even natural meteoroids temporarily captured by Earth's gravity.

Loading next visibility...
Identifier
61775, 2024-199AS
Orbit
SSO
Country
Flag of TBDTBD
Related business
None
Manufacturer
Unknown
Mission
Operational Amateur Technology
Bus & Motor
Unknown
Mass
Unknown
Launch date (UTC)
2024-11-04 (2 years ago)
Launch vehicle
SOYUZ-2-1B
Launch site
Vostochny Cosmodrome (VOSTO)
Object type
Unknown
Shape & HBR
Box, 0.2 m
Radar Cross Section
0.100 m², Medium (>0.1 m² and < 1m²)

Expand to show TLE details & history
Last TLE update: 8 hours ago

TLE from 8 hours ago
0 OBJECT AS
1 61775U 24199AS  26264.28396458  .00012315  00000-0  24417-3 0  9999
2 61775  97.2816 137.0799 0011689 291.6032  68.3972 15.47105424149018
Epoch: 2026-09-21T06:48Z
TLE epoch observation values (Epoch: 2026-09-21T06:48:54.539Z)
Latitude
-0.00008°
Longitude
34.68666°
Altitude
425.409 km
Speed
7.658 km/s
True Right ascension
09h 08m 19s
True Declination
0° 00' 00"
Sunlit
Object was in daylight at epoch
Visualization orbit readout
Latitude
Unknown
Longitude
Unknown
Altitude
Unknown
Speed
Unknown
Apparent Right ascension
Unknown
Apparent Declination
Unknown
Sunlit
N/A
Visualization observer readout
Local Sidereal Time
08:07:23
Azimuth
Unknown
Elevation
Unknown
Doppler factor
Unknown
Orbital elements
Apogee altitude
430.072 km
Perigee altitude
414.174 km
Semi-major axis
6,800.26 km
Eccentricity
0.00117
Inclination
97.2816°
RAAN
137.0799°
Arg. of periapsis
291.6032°
True anomaly
68.5218°
Mean anomaly
68.3972°
Eccentric anomaly
68.4595°
Mean motion
3.87039 °/min
Orbital period
93.01 mins
BSTAR
0.00024417
Loading maneuver chart data...
Computing Atmospheric mass density...
Loading historical data...
Loading historical data...
Loading historical data...
Loading historical data...
Loading historical data...
Loading historical data...
Loading historical data...

Documentation

Showing up to 5 results
|